Location: Lombard
(41.8800°N, 88.0078°W)
Time: 02:30:08
(UTC-06:00)

BlueWalker 3 - Pass Details

Date: 23 January 2026
Orbit: 450 x 461 km, 53.2° (Epoch: 11 February)

Event Time Altitude Azimuth Distance (km) Brightness Sun altitude
Rises 19:38:06 0° 280° (W) 2,453 6.6 -30.0°
Reaches altitude 10° 19:40:47 10° 301° (WNW) 1,581 5.1 -30.5°
Enters shadow 19:41:18 12° 308° (NW) 1,451 4.8 -30.6°
